カタログに戻る

STARLINK-2196

運用中通信VLEO
NORAD 47773·PAYLOAD·🇺🇸 United States

打ち上げ Mar 4, 2021 から Cape Canaveral Space Force Station

Loading…

次のパス (今後24時間)

TLE

最新Source: CelesTrak SupGP

元期: Sep 14, 2026, 20:17 UTC

1 47773C 21017BD  26257.84562500  .00076039  00000+0  17747-2 0  2570
2 47773  53.1608  54.3763 0001352 326.0028   1.2882 15.41597022    11

AllMySatでSTARLINK-2196をリアルタイム追跡

Download on the App Store